Flag for U.S.A. Weather past 2 weeks in Chicago, Illinois, U.S.A.

Now
44 °F

Clear.


Feels Like: 38 °F
Forecast: 40 / 48 °F
Wind: 13 mph from North

Location: Chicago Midway Airport

Current Time: Apr 27, 2015 at 4:01:00 AM

Latest Report: Apr 27, 2015 at 2:53 AM


Visibility: 10 mi

Pressure: 30.06 "Hg

Humidity: 63%

Dew point: 32 °F

Location of ChicagoLocation

Historic Weather in Chicago — Graph

°F

Chicago temperature yesterday

Maximum temperature yesterday: 57 °F (at 2:53 PM)
Minimum temperature yesterday: 40 °F (at 1:53 AM)
Average temperature yesterday: 48 °F

Past Weeks' High & Low Weather Summary

 TemperatureHumidityPressure
High78 °F (Apr 17, 12:53 PM)100% (Apr 19, 8:53 PM)30.28 "Hg (Apr 19, 8:53 PM)
Low35 °F (Apr 23, 3:53 AM)14% (Apr 14, 5:53 PM)29.23 "Hg (Apr 20, 5:53 AM)
Average53 °F51%29.94 "Hg
* Reported Apr 12 2:53 AM — Apr 27 2:53 AM, Chicago, Weather by CustomWeather, © 2015

Note: Actual official high and low records may vary slightly from our data, if they occured in-between our weather recording intervals... More about our weather records

Advertising

Chicago weather history for previous 24 hours

 ConditionsComfort  
Time TempWeatherWind HumidityBarometerVisibility
2:53 AM
Mon, Apr 27
44 °FClear.13 mph63%30.06 "Hg10 mi
1:53 AM45 °FClear.15 mph58%30.06 "Hg10 mi
12:53 AM46 °FClear.14 mph56%30.06 "Hg10 mi
11:53 PM
Sun, Apr 26
46 °FClear.13 mph56%30.05 "Hg10 mi
10:53 PM45 °FClear.10 mph53%30.05 "Hg10 mi
9:53 PM46 °FPassing clouds.9 mph46%30.04 "Hg10 mi
8:53 PM48 °FPassing clouds.8 mph39%30.03 "Hg10 mi
7:53 PM49 °FPassing clouds.7 mph36%30.02 "Hg10 mi
6:53 PM50 °FPassing clouds.16 mph36%30.02 "Hg10 mi
5:53 PM54 °FPassing clouds.15 mph33%30.01 "Hg10 mi
4:53 PM55 °FPassing clouds.21 mph30%30.01 "Hg10 mi
3:53 PM56 °FPassing clouds.16 mph33%30.01 "Hg10 mi
2:53 PM57 °FPassing clouds.21 mph31%30.02 "Hg10 mi
1:53 PM56 °FPassing clouds.17 mph32%30.02 "Hg10 mi
12:53 PM55 °FPassing clouds.15 mph35%30.03 "Hg10 mi
11:53 AM54 °FSunny.15 mph40%30.03 "Hg10 mi
10:53 AM52 °FSunny.10 mph41%30.04 "Hg10 mi
9:53 AM51 °FSunny.10 mph44%30.03 "Hg10 mi
8:53 AM48 °FSunny.16 mph50%30.02 "Hg10 mi
7:53 AM45 °FPassing clouds.14 mph53%30.00 "Hg10 mi
6:53 AM43 °FClear.10 mph62%29.98 "Hg10 mi
5:53 AM41 °FPassing clouds.8 mph60%29.95 "Hg10 mi
4:53 AM41 °FPassing clouds.8 mph65%29.92 "Hg10 mi
Weather by CustomWeather, © 2015

See weather overviewHow to use our weather pages